When you browse on this site, cookies collect data to enhance your experience and personalize the content and advertising you see.
Visit our Privacy Policy to learn more. By continuing to use the site, you agree to this use of cookies and data.
  • Em Portugal
  • Lista de países
  • Para 7 dias
  • Temperatura da água
  • Mapas de satélite
  • Mapa do tempo
  • Widgets de tempo
  • user-avatar
    Iniciar Sessão

    Previsão horária em Konstantyna

    Hoje, 22 Maio, Quarta-feira

    Tempo Temperatura Precipitação Vento Pressão Humidade
    00:00 +13°C° 0.7 mm 1 m/s 710 mmHg 91%
    01:00 +13°C° 0.4 mm 1 m/s 710 mmHg 91%
    02:00 +13°C° 0.4 mm 1 m/s 710 mmHg 91%
    03:00 +13°C° 0.4 mm 1 m/s 709 mmHg 90%
    04:00 +14°C° 0.1 mm 1 m/s 709 mmHg 86%
    05:00 +14°C° 0.1 mm 1 m/s 710 mmHg 83%
    06:00 +15°C° 0.1 mm 1 m/s 710 mmHg 79%
    07:00 +18°C° 0.1 mm 1 m/s 710 mmHg 72%
    08:00 +18°C° 0.1 mm 0 m/s 711 mmHg 65%
    09:00 +20°C° 0.1 mm 0 m/s 711 mmHg 58%
    10:00 +22°C° 0.7 mm 1 m/s 711 mmHg 56%
    11:00 +21°C° 0.7 mm 2 m/s 711 mmHg 55%
    12:00 +23°C° 0.7 mm 2 m/s 711 mmHg 53%
    13:00 +22°C° 0.8 mm 3 m/s 711 mmHg 56%
    14:00 +21°C° 0.8 mm 3 m/s 711 mmHg 59%
    15:00 +21°C° 0.8 mm 4 m/s 711 mmHg 61%
    16:00 +20°C° 1.1 mm 3 m/s 711 mmHg 66%
    17:00 +19°C° 1.1 mm 3 m/s 711 mmHg 71%
    18:00 +18°C° 1.1 mm 2 m/s 711 mmHg 76%
    19:00 +17°C° 0 mm 2 m/s 711 mmHg 80%
    20:00 +15°C° 0 mm 1 m/s 711 mmHg 84%
    21:00 +14°C° 0 mm 1 m/s 711 mmHg 88%
    22:00 +13°C° 0 mm 0 m/s 711 mmHg 89%
    23:00 +12°C° 0 mm 0 m/s 711 mmHg 89%

    Amanhã, 23 Maio, Quinta-feira

    Tempo Temperatura Precipitação Vento Pressão Humidade
    00:00 +12°C° 0 mm 0 m/s 711 mmHg 90%
    01:00 +12°C° 0 mm 0 m/s 711 mmHg 89%
    02:00 +11°C° 0 mm 0 m/s 711 mmHg 88%
    03:00 +11°C° 0 mm 0 m/s 710 mmHg 87%
    04:00 +12°C° 0 mm 0 m/s 711 mmHg 81%
    05:00 +14°C° 0 mm 0 m/s 711 mmHg 75%
    06:00 +15°C° 0 mm 0 m/s 711 mmHg 69%
    07:00 +16°C° 0 mm 0 m/s 712 mmHg 59%
    08:00 +20°C° 0 mm 1 m/s 712 mmHg 50%
    09:00 +22°C° 0 mm 1 m/s 713 mmHg 40%
    10:00 +23°C° 0 mm 1 m/s 713 mmHg 37%
    11:00 +24°C° 0 mm 1 m/s 713 mmHg 34%
    12:00 +25°C° 0 mm 1 m/s 713 mmHg 32%
    13:00 +25°C° 0 mm 2 m/s 712 mmHg 33%
    14:00 +25°C° 0 mm 3 m/s 712 mmHg 34%
    15:00 +26°C° 0 mm 3 m/s 711 mmHg 35%
    16:00 +24°C° 0 mm 3 m/s 711 mmHg 42%
    17:00 +21°C° 0 mm 3 m/s 711 mmHg 49%
    18:00 +20°C° 0 mm 3 m/s 711 mmHg 56%
    19:00 +18°C° 0 mm 2 m/s 711 mmHg 59%
    20:00 +17°C° 0 mm 2 m/s 711 mmHg 61%
    21:00 +16°C° 0 mm 1 m/s 711 mmHg 64%
    22:00 +16°C° 0 mm 1 m/s 711 mmHg 64%
    23:00 +15°C° 0 mm 1 m/s 710 mmHg 65%

    Depois de amanhã, 24 Maio, Sexta-feira

    Tempo Temperatura Precipitação Vento Pressão Humidade
    00:00 +15°C° 0 mm 1 m/s 710 mmHg 65%
    01:00 +15°C° 0 mm 1 m/s 709 mmHg 64%
    02:00 +15°C° 0 mm 1 m/s 709 mmHg 62%
    03:00 +15°C° 0 mm 1 m/s 709 mmHg 61%
    04:00 +16°C° 0 mm 1 m/s 709 mmHg 58%
    05:00 +18°C° 0 mm 1 m/s 709 mmHg 56%
    06:00 +19°C° 0 mm 1 m/s 709 mmHg 53%
    07:00 +21°C° 0 mm 1 m/s 709 mmHg 50%
    08:00 +23°C° 0 mm 2 m/s 709 mmHg 46%
    09:00 +25°C° 0 mm 2 m/s 710 mmHg 42%
    10:00 +27°C° 0 mm 2 m/s 710 mmHg 41%
    11:00 +28°C° 0 mm 3 m/s 709 mmHg 39%
    12:00 +29°C° 0 mm 3 m/s 709 mmHg 37%
    13:00 +28°C° 0 mm 3 m/s 709 mmHg 41%
    14:00 +27°C° 0 mm 3 m/s 708 mmHg 45%
    15:00 +27°C° 0 mm 3 m/s 708 mmHg 50%
    16:00 +25°C° 0.3 mm 3 m/s 707 mmHg 58%
    17:00 +24°C° 0.3 mm 2 m/s 707 mmHg 66%
    18:00 +21°C° 0.3 mm 2 m/s 707 mmHg 74%
    19:00 +20°C° 0.9 mm 2 m/s 707 mmHg 77%
    20:00 +19°C° 0.9 mm 2 m/s 707 mmHg 81%
    21:00 +18°C° 0.9 mm 2 m/s 708 mmHg 84%
    22:00 +19°C° 0 mm 1 m/s 707 mmHg 84%
    23:00 +19°C° 0 mm 1 m/s 706 mmHg 84%

    25 Maio, Sábado

    Tempo Temperatura Precipitação Vento Pressão Humidade
    00:00 +18°C° 0 mm 1 m/s 706 mmHg 84%
    01:00 +18°C° 0.3 mm 1 m/s 706 mmHg 82%
    02:00 +19°C° 0.3 mm 1 m/s 706 mmHg 81%
    03:00 +19°C° 0.3 mm 1 m/s 706 mmHg 80%
    04:00 +19°C° 0.3 mm 1 m/s 706 mmHg 81%
    05:00 +19°C° 0.3 mm 1 m/s 706 mmHg 83%
    06:00 +19°C° 0.3 mm 1 m/s 706 mmHg 84%
    07:00 +20°C° 1.1 mm 1 m/s 706 mmHg 82%
    08:00 +20°C° 1.1 mm 1 m/s 707 mmHg 79%
    09:00 +19°C° 1.1 mm 0 m/s 707 mmHg 76%
    10:00 +21°C° 1.7 mm 1 m/s 707 mmHg 76%
    11:00 +22°C° 1.7 mm 1 m/s 707 mmHg 76%
    12:00 +21°C° 1.7 mm 2 m/s 707 mmHg 75%
    13:00 +20°C° 1.8 mm 2 m/s 706 mmHg 79%
    14:00 +19°C° 1.8 mm 2 m/s 706 mmHg 83%
    15:00 +18°C° 1.8 mm 2 m/s 706 mmHg 86%
    16:00 +18°C° 2.5 mm 2 m/s 706 mmHg 89%
    17:00 +19°C° 2.5 mm 1 m/s 706 mmHg 91%
    18:00 +18°C° 2.5 mm 1 m/s 706 mmHg 94%
    19:00 +18°C° 0.3 mm 1 m/s 707 mmHg 94%
    20:00 +18°C° 0.3 mm 1 m/s 707 mmHg 95%
    21:00 +16°C° 0.3 mm 1 m/s 707 mmHg 96%
    22:00 +16°C° 0 mm 1 m/s 707 mmHg 96%
    23:00 +16°C° 0 mm 1 m/s 707 mmHg 97%

    26 Maio, Domingo

    Tempo Temperatura Precipitação Vento Pressão Humidade
    00:00 +16°C° 0 mm 2 m/s 706 mmHg 97%
    01:00 +16°C° 0.1 mm 2 m/s 706 mmHg 97%
    02:00 +16°C° 0.1 mm 2 m/s 706 mmHg 96%
    03:00 +16°C° 0.1 mm 1 m/s 706 mmHg 96%
    04:00 +16°C° 0.2 mm 2 m/s 706 mmHg 96%
    05:00 +16°C° 0.2 mm 2 m/s 706 mmHg 95%
    06:00 +16°C° 0.2 mm 2 m/s 706 mmHg 95%
    07:00 +16°C° 1.8 mm 2 m/s 706 mmHg 94%
    08:00 +16°C° 1.8 mm 2 m/s 706 mmHg 93%
    09:00 +17°C° 1.8 mm 2 m/s 706 mmHg 92%
    10:00 +16°C° 5 mm 2 m/s 706 mmHg 93%
    11:00 +16°C° 5 mm 3 m/s 705 mmHg 93%
    12:00 +16°C° 5 mm 3 m/s 705 mmHg 94%
    13:00 +16°C° 3.8 mm 3 m/s 705 mmHg 94%
    14:00 +16°C° 3.8 mm 3 m/s 705 mmHg 95%
    15:00 +14°C° 3.8 mm 3 m/s 704 mmHg 95%
    16:00 +14°C° 3.3 mm 3 m/s 704 mmHg 95%
    17:00 +14°C° 3.3 mm 3 m/s 704 mmHg 95%
    18:00 +13°C° 3.3 mm 3 m/s 704 mmHg 95%
    19:00 +14°C° 0.3 mm 2 m/s 704 mmHg 95%
    20:00 +14°C° 0.3 mm 2 m/s 705 mmHg 96%
    21:00 +14°C° 0.3 mm 1 m/s 705 mmHg 97%
    22:00 +14°C° 0.3 mm 1 m/s 704 mmHg 97%
    23:00 +14°C° 0.3 mm 1 m/s 704 mmHg 97%

    27 Maio, Segunda-feira

    Tempo Temperatura Precipitação Vento Pressão Humidade
    00:00 +14°C° 0.3 mm 2 m/s 703 mmHg 97%
    01:00 +14°C° 0.6 mm 1 m/s 703 mmHg 97%
    02:00 +14°C° 0.6 mm 1 m/s 703 mmHg 96%
    03:00 +14°C° 0.6 mm 1 m/s 703 mmHg 96%
    04:00 +14°C° 1.7 mm 1 m/s 703 mmHg 96%
    05:00 +14°C° 1.7 mm 1 m/s 703 mmHg 96%
    06:00 +14°C° 1.7 mm 1 m/s 703 mmHg 96%
    07:00 +15°C° 0.2 mm 1 m/s 703 mmHg 94%
    08:00 +15°C° 0.2 mm 1 m/s 703 mmHg 93%
    09:00 +15°C° 0.2 mm 2 m/s 703 mmHg 92%
    10:00 +16°C° 0.6 mm 2 m/s 704 mmHg 89%
    11:00 +16°C° 0.6 mm 3 m/s 704 mmHg 86%
    12:00 +17°C° 0.6 mm 4 m/s 704 mmHg 84%
    13:00 +15°C° 0.5 mm 4 m/s 704 mmHg 87%
    14:00 +14°C° 0.5 mm 4 m/s 704 mmHg 90%
    15:00 +14°C° 0.5 mm 4 m/s 704 mmHg 93%
    16:00 +13°C° 0.6 mm 4 m/s 704 mmHg 94%
    17:00 +13°C° 0.6 mm 3 m/s 704 mmHg 94%
    18:00 +13°C° 0.6 mm 3 m/s 705 mmHg 94%
    19:00 +14°C° 0.4 mm 2 m/s 705 mmHg 94%
    20:00 +14°C° 0.4 mm 2 m/s 706 mmHg 94%
    21:00 +14°C° 0.4 mm 2 m/s 706 mmHg 94%
    22:00 +14°C° 0.7 mm 2 m/s 706 mmHg 94%
    23:00 +14°C° 0.7 mm 2 m/s 706 mmHg 94%
    Mostrar mais